owner,sensor,date,latitude,longitude,vertical_datum,wind_speed,wind_to_direction,wind_speed_of_gust,qcFlag 
TCOON,ioos:station:TCOON:146:1,2016-07-01T00:30:00Z,28.1324,-97.0345,0.0,3.2,196.0,3.9,'1111122,1111122,1111122' 
TCOON,ioos:station:TCOON:146:1,2016-07-01T01:30:00Z,28.1324,-97.0345,0.0,3.6,195.0,4.4,'1111122,1111122,1111122' 
TCOON,ioos:station:TCOON:146:1,2016-07-01T02:30:00Z,28.1324,-97.0345,0.0,3.7,219.0,4.5,'1111122,1111122,1111122' 
TCOON,ioos:station:TCOON:146:1,2016-07-01T03:30:00Z,28.1324,-97.0345,0.0,3.2,206.0,3.8,'1111122,1111122,1111122' 
TCOON,ioos:station:TCOON:146:1,2016-07-01T04:30:00Z,28.1324,-97.0345,0.0,3.2,228.0,3.9,'1111122,1111122,1111122' 
TCOON,ioos:station:TCOON:146:1,2016-07-01T05:30:00Z,28.1324,-97.0345,0.0,3.1,234.0,3.7,'1111122,1111122,1111122' 
TCOON,ioos:station:TCOON:146:1,2016-07-01T06:30:00Z,28.1324,-97.0345,0.0,2.3,263.0,3.0,'1111122,1111122,1111122' 
TCOON,ioos:station:TCOON:146:1,2016-07-01T07:30:00Z,28.1324,-97.0345,0.0,3.0,258.0,3.7,'1111122,1111122,1111122' 
TCOON,ioos:station:TCOON:146:1,2016-07-01T08:30:00Z,28.1324,-97.0345,0.0,2.8,263.0,3.8,'1111122,1111122,1111122' 
TCOON,ioos:station:TCOON:146:1,2016-07-01T09:30:00Z,28.1324,-97.0345,0.0,3.1,278.0,3.7,'1111122,1111122,1111122' 
TCOON,ioos:station:TCOON:146:1,2016-07-01T10:30:00Z,28.1324,-97.0345,0.0,2.1,219.0,4.3,'1111122,1111122,1111122' 
TCOON,ioos:station:TCOON:146:1,2016-07-01T11:30:00Z,28.1324,-97.0345,0.0,3.5,279.0,4.1,'1111122,1111122,1111122' 
TCOON,ioos:station:TCOON:146:1,2016-07-01T13:30:00Z,28.1324,-97.0345,0.0,2.9,296.0,3.8,'1111122,1111122,1111122' 
TCOON,ioos:station:TCOON:146:1,2016-07-01T14:30:00Z,28.1324,-97.0345,0.0,3.2,290.0,4.1,'1111122,1111122,1111122' 
TCOON,ioos:station:TCOON:146:1,2016-07-01T15:30:00Z,28.1324,-97.0345,0.0,4.5,261.0,7.0,'1111122,1111122,1111122' 
TCOON,ioos:station:TCOON:146:1,2016-07-01T17:30:00Z,28.1324,-97.0345,0.0,3.5,213.0,4.4,'1111122,1111122,1111122' 
TCOON,ioos:station:TCOON:146:1,2016-07-01T19:30:00Z,28.1324,-97.0345,0.0,3.3,216.0,4.0,'1111122,1111122,1111122' 
TCOON,ioos:station:TCOON:146:1,2016-07-01T21:30:00Z,28.1324,-97.0345,0.0,4.3,213.0,5.0,'1111122,1111122,1111122' 
TCOON,ioos:station:TCOON:146:1,2016-07-02T00:30:00Z,28.1324,-97.0345,0.0,5.1,209.0,6.1,'1111122,1111122,1111122' 
TCOON,ioos:station:TCOON:146:1,2016-07-02T01:30:00Z,28.1324,-97.0345,0.0,5.6,211.0,6.7,'1111122,1111122,1111122' 
TCOON,ioos:station:TCOON:146:1,2016-07-02T02:30:00Z,28.1324,-97.0345,0.0,5.5,221.0,6.7,'1111122,1111122,1111122' 
TCOON,ioos:station:TCOON:146:1,2016-07-02T03:30:00Z,28.1324,-97.0345,0.0,5.0,220.0,6.2,'1111122,1111122,1111122' 
TCOON,ioos:station:TCOON:146:1,2016-07-02T05:30:00Z,28.1324,-97.0345,0.0,5.0,233.0,6.0,'1111122,1111122,1111122' 
TCOON,ioos:station:TCOON:146:1,2016-07-02T06:30:00Z,28.1324,-97.0345,0.0,4.9,242.0,5.9,'1111122,1111122,1111122' 
TCOON,ioos:station:TCOON:146:1,2016-07-02T07:30:00Z,28.1324,-97.0345,0.0,5.1,248.0,6.8,'1111122,1111122,1111122' 
TCOON,ioos:station:TCOON:146:1,2016-07-02T08:30:00Z,28.1324,-97.0345,0.0,4.8,247.0,6.2,'1111122,1111122,1111122' 
TCOON,ioos:station:TCOON:146:1,2016-07-02T09:30:00Z,28.1324,-97.0345,0.0,4.5,250.0,5.5,'1111122,1111122,1111122' 
TCOON,ioos:station:TCOON:146:1,2016-07-02T10:30:00Z,28.1324,-97.0345,0.0,4.5,251.0,5.7,'1111122,1111122,1111122' 
TCOON,ioos:station:TCOON:146:1,2016-07-02T11:30:00Z,28.1324,-97.0345,0.0,3.6,262.0,4.6,'1111122,1111122,1111122' 
TCOON,ioos:station:TCOON:146:1,2016-07-02T12:30:00Z,28.1324,-97.0345,0.0,3.6,263.0,4.2,'1111122,1111122,1111122' 
TCOON,ioos:station:TCOON:146:1,2016-07-02T13:30:00Z,28.1324,-97.0345,0.0,3.5,270.0,4.2,'1111122,1111122,1111122' 
TCOON,ioos:station:TCOON:146:1,2016-07-02T14:30:00Z,28.1324,-97.0345,0.0,4.0,246.0,5.1,'1111122,1111122,1111122' 
TCOON,ioos:station:TCOON:146:1,2016-07-02T15:30:00Z,28.1324,-97.0345,0.0,4.4,246.0,5.7,'1111122,1111122,1111122' 
TCOON,ioos:station:TCOON:146:1,2016-07-02T16:30:00Z,28.1324,-97.0345,0.0,4.3,234.0,5.4,'1111122,1111122,1111122' 
TCOON,ioos:station:TCOON:146:1,2016-07-02T17:30:00Z,28.1324,-97.0345,0.0,4.7,227.0,5.5,'1111122,1111122,1111122' 
TCOON,ioos:station:TCOON:146:1,2016-07-02T18:30:00Z,28.1324,-97.0345,0.0,5.1,227.0,6.1,'1111122,1111122,1111122' 
TCOON,ioos:station:TCOON:146:1,2016-07-02T19:30:00Z,28.1324,-97.0345,0.0,5.4,228.0,6.7,'1111122,1111122,1111122' 
TCOON,ioos:station:TCOON:146:1,2016-07-02T21:30:00Z,28.1324,-97.0345,0.0,6.2,223.0,7.4,'1111122,1111122,1111122' 
TCOON,ioos:station:TCOON:146:1,2016-07-02T23:30:00Z,28.1324,-97.0345,0.0,6.4,220.0,7.7,'1111122,1111122,1111122' 
TCOON,ioos:station:TCOON:146:1,2016-07-03T00:30:00Z,28.1324,-97.0345,0.0,6.9,216.0,8.4,'1111122,1111122,1111122' 
TCOON,ioos:station:TCOON:146:1,2016-07-03T01:30:00Z,28.1324,-97.0345,0.0,6.7,222.0,8.2,'1111122,1111122,1111122' 
TCOON,ioos:station:TCOON:146:1,2016-07-03T02:30:00Z,28.1324,-97.0345,0.0,6.4,221.0,7.7,'1111122,1111122,1111122' 
TCOON,ioos:station:TCOON:146:1,2016-07-03T03:30:00Z,28.1324,-97.0345,0.0,6.2,223.0,7.3,'1111122,1111122,1111122' 
TCOON,ioos:station:TCOON:146:1,2016-07-03T04:30:00Z,28.1324,-97.0345,0.0,6.7,226.0,7.9,'1111122,1111122,1111122' 
TCOON,ioos:station:TCOON:146:1,2016-07-03T05:30:00Z,28.1324,-97.0345,0.0,6.0,234.0,7.2,'1111122,1111122,1111122' 
TCOON,ioos:station:TCOON:146:1,2016-07-03T06:30:00Z,28.1324,-97.0345,0.0,5.9,240.0,7.3,'1111122,1111122,1111122' 
TCOON,ioos:station:TCOON:146:1,2016-07-03T07:30:00Z,28.1324,-97.0345,0.0,5.7,245.0,7.1,'1111122,1111122,1111122' 
TCOON,ioos:station:TCOON:146:1,2016-07-03T08:30:00Z,28.1324,-97.0345,0.0,6.1,241.0,7.4,'1111122,1111122,1111122' 
TCOON,ioos:station:TCOON:146:1,2016-07-03T09:30:00Z,28.1324,-97.0345,0.0,5.4,243.0,6.9,'1111122,1111122,1111122' 
TCOON,ioos:station:TCOON:146:1,2016-07-03T10:30:00Z,28.1324,-97.0345,0.0,6.6,241.0,8.1,'1111122,1111122,1111122' 
TCOON,ioos:station:TCOON:146:1,2016-07-03T11:30:00Z,28.1324,-97.0345,0.0,6.6,242.0,8.8,'1111122,1111122,1111122' 
TCOON,ioos:station:TCOON:146:1,2016-07-03T12:30:00Z,28.1324,-97.0345,0.0,4.8,248.0,6.6,'1111122,1111122,1111122' 
TCOON,ioos:station:TCOON:146:1,2016-07-03T13:30:00Z,28.1324,-97.0345,0.0,5.9,240.0,7.3,'1111122,1111122,1111122' 
TCOON,ioos:station:TCOON:146:1,2016-07-03T14:30:00Z,28.1324,-97.0345,0.0,6.2,241.0,8.0,'1111122,1111122,1111122' 
TCOON,ioos:station:TCOON:146:1,2016-07-03T15:30:00Z,28.1324,-97.0345,0.0,6.1,239.0,7.6,'1111122,1111122,1111122' 
TCOON,ioos:station:TCOON:146:1,2016-07-03T16:30:00Z,28.1324,-97.0345,0.0,6.0,241.0,7.4,'1111122,1111122,1111122' 
TCOON,ioos:station:TCOON:146:1,2016-07-03T17:30:00Z,28.1324,-97.0345,0.0,6.1,236.0,7.5,'1111122,1111122,1111122' 
TCOON,ioos:station:TCOON:146:1,2016-07-03T18:30:00Z,28.1324,-97.0345,0.0,7.0,232.0,8.6,'1111122,1111122,1111122' 
TCOON,ioos:station:TCOON:146:1,2016-07-03T19:30:00Z,28.1324,-97.0345,0.0,6.9,231.0,8.2,'1111122,1111122,1111122' 
TCOON,ioos:station:TCOON:146:1,2016-07-03T20:30:00Z,28.1324,-97.0345,0.0,7.2,231.0,8.5,'1111122,1111122,1111122' 
TCOON,ioos:station:TCOON:146:1,2016-07-03T21:30:00Z,28.1324,-97.0345,0.0,7.5,229.0,8.9,'1111122,1111122,1111122' 
TCOON,ioos:station:TCOON:146:1,2016-07-03T22:30:00Z,28.1324,-97.0345,0.0,8.0,228.0,9.4,'1111122,1111122,1111122' 
TCOON,ioos:station:TCOON:146:1,2016-07-03T23:30:00Z,28.1324,-97.0345,0.0,8.2,226.0,9.4,'1111122,1111122,1111122' 
TCOON,ioos:station:TCOON:146:1,2016-07-04T00:30:00Z,28.1324,-97.0345,0.0,8.1,226.0,9.7,'1111122,1111122,1111122' 
TCOON,ioos:station:TCOON:146:1,2016-07-04T01:30:00Z,28.1324,-97.0345,0.0,8.1,228.0,9.9,'1111122,1111122,1111122' 
TCOON,ioos:station:TCOON:146:1,2016-07-04T02:30:00Z,28.1324,-97.0345,0.0,8.4,235.0,9.8,'1111122,1111122,1111122' 
TCOON,ioos:station:TCOON:146:1,2016-07-04T03:30:00Z,28.1324,-97.0345,0.0,7.6,236.0,9.6,'1111122,1111122,1111122' 
TCOON,ioos:station:TCOON:146:1,2016-07-04T04:30:00Z,28.1324,-97.0345,0.0,6.7,242.0,8.6,'1111122,1111122,1111122' 
TCOON,ioos:station:TCOON:146:1,2016-07-04T05:30:00Z,28.1324,-97.0345,0.0,5.8,250.0,7.9,'1111122,1111122,1111122' 
TCOON,ioos:station:TCOON:146:1,2016-07-04T06:30:00Z,28.1324,-97.0345,0.0,6.4,250.0,8.9,'1111122,1111122,1111122' 
TCOON,ioos:station:TCOON:146:1,2016-07-04T07:30:00Z,28.1324,-97.0345,0.0,5.8,246.0,8.4,'1111122,1111122,1111122' 
TCOON,ioos:station:TCOON:146:1,2016-07-04T08:30:00Z,28.1324,-97.0345,0.0,5.9,252.0,7.8,'1111122,1111122,1111122' 
TCOON,ioos:station:TCOON:146:1,2016-07-04T09:30:00Z,28.1324,-97.0345,0.0,6.7,247.0,8.5,'1111122,1111122,1111122' 
TCOON,ioos:station:TCOON:146:1,2016-07-04T10:30:00Z,28.1324,-97.0345,0.0,6.1,250.0,8.0,'1111122,1111122,1111122' 
TCOON,ioos:station:TCOON:146:1,2016-07-04T11:30:00Z,28.1324,-97.0345,0.0,5.5,256.0,7.1,'1111122,1111122,1111122' 
TCOON,ioos:station:TCOON:146:1,2016-07-04T12:30:00Z,28.1324,-97.0345,0.0,5.3,254.0,7.0,'1111122,1111122,1111122' 
TCOON,ioos:station:TCOON:146:1,2016-07-04T13:30:00Z,28.1324,-97.0345,0.0,5.5,248.0,7.4,'1111122,1111122,1111122' 
TCOON,ioos:station:TCOON:146:1,2016-07-04T14:30:00Z,28.1324,-97.0345,0.0,5.8,248.0,7.9,'1111122,1111122,1111122' 
TCOON,ioos:station:TCOON:146:1,2016-07-04T15:30:00Z,28.1324,-97.0345,0.0,6.3,244.0,8.3,'1111122,1111122,1111122' 
TCOON,ioos:station:TCOON:146:1,2016-07-04T16:30:00Z,28.1324,-97.0345,0.0,6.6,243.0,8.4,'1111122,1111122,1111122' 
TCOON,ioos:station:TCOON:146:1,2016-07-04T17:30:00Z,28.1324,-97.0345,0.0,7.3,238.0,9.0,'1111122,1111122,1111122' 
TCOON,ioos:station:TCOON:146:1,2016-07-04T18:30:00Z,28.1324,-97.0345,0.0,7.5,237.0,9.2,'1111122,1111122,1111122' 
TCOON,ioos:station:TCOON:146:1,2016-07-04T19:30:00Z,28.1324,-97.0345,0.0,8.1,234.0,9.8,'1111122,1111122,1111122' 
TCOON,ioos:station:TCOON:146:1,2016-07-04T20:30:00Z,28.1324,-97.0345,0.0,7.4,230.0,8.8,'1111122,1111122,1111122' 
TCOON,ioos:station:TCOON:146:1,2016-07-04T21:30:00Z,28.1324,-97.0345,0.0,7.6,232.0,9.1,'1111122,1111122,1111122' 
TCOON,ioos:station:TCOON:146:1,2016-07-04T22:30:00Z,28.1324,-97.0345,0.0,7.4,226.0,8.9,'1111122,1111122,1111122' 
TCOON,ioos:station:TCOON:146:1,2016-07-04T23:30:00Z,28.1324,-97.0345,0.0,7.2,226.0,8.6,'1111122,1111122,1111122' 
TCOON,ioos:station:TCOON:146:1,2016-07-05T00:30:00Z,28.1324,-97.0345,0.0,7.3,226.0,8.6,'1111122,1111122,1111122' 
TCOON,ioos:station:TCOON:146:1,2016-07-05T01:30:00Z,28.1324,-97.0345,0.0,7.3,226.0,8.9,'1111122,1111122,1111122' 
TCOON,ioos:station:TCOON:146:1,2016-07-05T02:30:00Z,28.1324,-97.0345,0.0,6.1,220.0,7.2,'1111122,1111122,1111122' 
TCOON,ioos:station:TCOON:146:1,2016-07-05T03:30:00Z,28.1324,-97.0345,0.0,6.6,224.0,8.5,'1111122,1111122,1111122' 
TCOON,ioos:station:TCOON:146:1,2016-07-05T04:30:00Z,28.1324,-97.0345,0.0,6.5,226.0,8.1,'1111122,1111122,1111122' 
TCOON,ioos:station:TCOON:146:1,2016-07-05T05:30:00Z,28.1324,-97.0345,0.0,7.0,233.0,8.6,'1111122,1111122,1111122' 
TCOON,ioos:station:TCOON:146:1,2016-07-05T06:30:00Z,28.1324,-97.0345,0.0,6.4,240.0,8.3,'1111122,1111122,1111122' 
TCOON,ioos:station:TCOON:146:1,2016-07-05T07:30:00Z,28.1324,-97.0345,0.0,5.6,242.0,7.4,'1111122,1111122,1111122' 
TCOON,ioos:station:TCOON:146:1,2016-07-05T08:30:00Z,28.1324,-97.0345,0.0,5.7,239.0,7.8,'1111122,1111122,1111122' 
TCOON,ioos:station:TCOON:146:1,2016-07-05T09:30:00Z,28.1324,-97.0345,0.0,5.7,244.0,7.1,'1111122,1111122,1111122' 
TCOON,ioos:station:TCOON:146:1,2016-07-05T10:30:00Z,28.1324,-97.0345,0.0,5.4,250.0,7.3,'1111122,1111122,1111122' 
TCOON,ioos:station:TCOON:146:1,2016-07-05T11:30:00Z,28.1324,-97.0345,0.0,4.3,254.0,5.7,'1111122,1111122,1111122' 
TCOON,ioos:station:TCOON:146:1,2016-07-05T12:30:00Z,28.1324,-97.0345,0.0,4.1,256.0,5.8,'1111122,1111122,1111122' 
TCOON,ioos:station:TCOON:146:1,2016-07-05T13:30:00Z,28.1324,-97.0345,0.0,5.7,252.0,8.0,'1111122,1111122,1111122' 
TCOON,ioos:station:TCOON:146:1,2016-07-05T14:30:00Z,28.1324,-97.0345,0.0,6.8,247.0,8.9,'1111122,1111122,1111122' 
TCOON,ioos:station:TCOON:146:1,2016-07-05T15:30:00Z,28.1324,-97.0345,0.0,6.1,244.0,7.8,'1111122,1111122,1111122' 
TCOON,ioos:station:TCOON:146:1,2016-07-05T16:30:00Z,28.1324,-97.0345,0.0,6.0,245.0,7.9,'1111122,1111122,1111122' 
TCOON,ioos:station:TCOON:146:1,2016-07-05T17:30:00Z,28.1324,-97.0345,0.0,6.3,238.0,7.8,'1111122,1111122,1111122' 
TCOON,ioos:station:TCOON:146:1,2016-07-05T18:30:00Z,28.1324,-97.0345,0.0,6.1,234.0,7.3,'1111122,1111122,1111122' 
TCOON,ioos:station:TCOON:146:1,2016-07-05T21:30:00Z,28.1324,-97.0345,0.0,6.5,222.0,7.7,'1111122,1111122,1111122' 
TCOON,ioos:station:TCOON:146:1,2016-07-05T22:30:00Z,28.1324,-97.0345,0.0,6.6,221.0,8.0,'1111122,1111122,1111122' 
TCOON,ioos:station:TCOON:146:1,2016-07-05T23:30:00Z,28.1324,-97.0345,0.0,7.3,222.0,8.8,'1111122,1111122,1111122' 
TCOON,ioos:station:TCOON:146:1,2016-07-06T00:30:00Z,28.1324,-97.0345,0.0,7.1,224.0,8.2,'1111122,1111122,1111122' 
TCOON,ioos:station:TCOON:146:1,2016-07-06T01:30:00Z,28.1324,-97.0345,0.0,6.5,214.0,7.7,'1111122,1111122,1111122' 
TCOON,ioos:station:TCOON:146:1,2016-07-06T02:30:00Z,28.1324,-97.0345,0.0,5.5,216.0,6.5,'1111122,1111122,1111122' 
TCOON,ioos:station:TCOON:146:1,2016-07-06T03:30:00Z,28.1324,-97.0345,0.0,5.9,226.0,7.4,'1111122,1111122,1111122' 
TCOON,ioos:station:TCOON:146:1,2016-07-06T04:30:00Z,28.1324,-97.0345,0.0,5.8,231.0,6.8,'1111122,1111122,1111122' 
TCOON,ioos:station:TCOON:146:1,2016-07-06T05:30:00Z,28.1324,-97.0345,0.0,5.9,236.0,7.4,'1111122,1111122,1111122' 
TCOON,ioos:station:TCOON:146:1,2016-07-06T06:30:00Z,28.1324,-97.0345,0.0,6.4,237.0,8.3,'1111122,1111122,1111122' 
TCOON,ioos:station:TCOON:146:1,2016-07-06T07:30:00Z,28.1324,-97.0345,0.0,6.6,239.0,8.2,'1111122,1111122,1111122' 
TCOON,ioos:station:TCOON:146:1,2016-07-06T08:30:00Z,28.1324,-97.0345,0.0,6.0,241.0,8.2,'1111122,1111122,1111122' 
TCOON,ioos:station:TCOON:146:1,2016-07-06T09:30:00Z,28.1324,-97.0345,0.0,4.9,245.0,6.1,'1111122,1111122,1111122' 
TCOON,ioos:station:TCOON:146:1,2016-07-06T10:30:00Z,28.1324,-97.0345,0.0,5.1,245.0,6.9,'1111122,1111122,1111122' 
TCOON,ioos:station:TCOON:146:1,2016-07-06T11:30:00Z,28.1324,-97.0345,0.0,4.0,249.0,5.4,'1111122,1111122,1111122' 
TCOON,ioos:station:TCOON:146:1,2016-07-06T12:30:00Z,28.1324,-97.0345,0.0,4.2,250.0,5.2,'1111122,1111122,1111122' 
TCOON,ioos:station:TCOON:146:1,2016-07-06T13:30:00Z,28.1324,-97.0345,0.0,4.7,246.0,6.1,'1111122,1111122,1111122' 
TCOON,ioos:station:TCOON:146:1,2016-07-06T15:30:00Z,28.1324,-97.0345,0.0,6.1,238.0,7.4,'1111122,1111122,1111122' 
TCOON,ioos:station:TCOON:146:1,2016-07-06T16:30:00Z,28.1324,-97.0345,0.0,6.6,241.0,7.9,'1111122,1111122,1111122' 
TCOON,ioos:station:TCOON:146:1,2016-07-06T17:30:00Z,28.1324,-97.0345,0.0,6.6,240.0,8.3,'1111122,1111122,1111122' 
TCOON,ioos:station:TCOON:146:1,2016-07-06T18:30:00Z,28.1324,-97.0345,0.0,6.5,233.0,7.8,'1111122,1111122,1111122' 
TCOON,ioos:station:TCOON:146:1,2016-07-06T19:30:00Z,28.1324,-97.0345,0.0,6.6,234.0,8.3,'1111122,1111122,1111122' 
TCOON,ioos:station:TCOON:146:1,2016-07-06T20:30:00Z,28.1324,-97.0345,0.0,6.6,231.0,8.3,'1111122,1111122,1111122' 
TCOON,ioos:station:TCOON:146:1,2016-07-06T21:30:00Z,28.1324,-97.0345,0.0,6.8,231.0,8.7,'1111122,1111122,1111122' 
TCOON,ioos:station:TCOON:146:1,2016-07-06T22:30:00Z,28.1324,-97.0345,0.0,6.6,228.0,7.7,'1111122,1111122,1111122' 
TCOON,ioos:station:TCOON:146:1,2016-07-06T23:30:00Z,28.1324,-97.0345,0.0,6.7,222.0,7.9,'1111122,1111122,1111122' 
TCOON,ioos:station:TCOON:146:1,2016-07-07T00:30:00Z,28.1324,-97.0345,0.0,6.9,224.0,8.4,'1111122,1111122,1111122' 
TCOON,ioos:station:TCOON:146:1,2016-07-07T01:30:00Z,28.1324,-97.0345,0.0,7.0,224.0,8.6,'1111122,1111122,1111122' 
TCOON,ioos:station:TCOON:146:1,2016-07-07T02:30:00Z,28.1324,-97.0345,0.0,6.4,225.0,7.7,'1111122,1111122,1111122' 
TCOON,ioos:station:TCOON:146:1,2016-07-07T03:30:00Z,28.1324,-97.0345,0.0,5.8,227.0,6.9,'1111122,1111122,1111122' 
TCOON,ioos:station:TCOON:146:1,2016-07-07T04:30:00Z,28.1324,-97.0345,0.0,5.3,229.0,6.2,'1111122,1111122,1111122' 
TCOON,ioos:station:TCOON:146:1,2016-07-07T05:30:00Z,28.1324,-97.0345,0.0,5.6,228.0,6.8,'1111122,1111122,1111122' 
TCOON,ioos:station:TCOON:146:1,2016-07-07T06:30:00Z,28.1324,-97.0345,0.0,5.3,233.0,6.4,'1111122,1111122,1111122' 
TCOON,ioos:station:TCOON:146:1,2016-07-07T07:30:00Z,28.1324,-97.0345,0.0,4.8,236.0,6.1,'1111122,1111122,1111122' 
TCOON,ioos:station:TCOON:146:1,2016-07-07T08:30:00Z,28.1324,-97.0345,0.0,4.7,237.0,6.0,'1111122,1111122,1111122' 
TCOON,ioos:station:TCOON:146:1,2016-07-07T09:30:00Z,28.1324,-97.0345,0.0,4.4,233.0,5.4,'1111122,1111122,1111122' 
TCOON,ioos:station:TCOON:146:1,2016-07-07T10:30:00Z,28.1324,-97.0345,0.0,4.9,234.0,6.0,'1111122,1111122,1111122' 
TCOON,ioos:station:TCOON:146:1,2016-07-07T11:30:00Z,28.1324,-97.0345,0.0,4.5,234.0,5.6,'1111122,1111122,1111122' 
TCOON,ioos:station:TCOON:146:1,2016-07-07T12:30:00Z,28.1324,-97.0345,0.0,4.8,236.0,6.1,'1111122,1111122,1111122' 
TCOON,ioos:station:TCOON:146:1,2016-07-07T13:30:00Z,28.1324,-97.0345,0.0,4.5,237.0,5.8,'1111122,1111122,1111122' 
TCOON,ioos:station:TCOON:146:1,2016-07-07T14:30:00Z,28.1324,-97.0345,0.0,5.4,241.0,6.9,'1111122,1111122,1111122' 
TCOON,ioos:station:TCOON:146:1,2016-07-07T15:30:00Z,28.1324,-97.0345,0.0,5.4,242.0,6.6,'1111122,1111122,1111122' 
TCOON,ioos:station:TCOON:146:1,2016-07-07T16:30:00Z,28.1324,-97.0345,0.0,5.6,237.0,7.1,'1111122,1111122,1111122' 
TCOON,ioos:station:TCOON:146:1,2016-07-07T17:30:00Z,28.1324,-97.0345,0.0,5.3,234.0,6.6,'1111122,1111122,1111122' 
TCOON,ioos:station:TCOON:146:1,2016-07-07T18:30:00Z,28.1324,-97.0345,0.0,6.2,230.0,7.8,'1111122,1111122,1111122' 
TCOON,ioos:station:TCOON:146:1,2016-07-07T21:30:00Z,28.1324,-97.0345,0.0,6.8,228.0,8.0,'1111122,1111122,1111122' 
TCOON,ioos:station:TCOON:146:1,2016-07-07T22:30:00Z,28.1324,-97.0345,0.0,6.8,226.0,8.4,'1111122,1111122,1111122' 
TCOON,ioos:station:TCOON:146:1,2016-07-07T23:30:00Z,28.1324,-97.0345,0.0,6.7,220.0,7.9,'1111122,1111122,1111122' 
TCOON,ioos:station:TCOON:146:1,2016-07-08T00:30:00Z,28.1324,-97.0345,0.0,6.5,221.0,8.2,'1111122,1111122,1111122' 
TCOON,ioos:station:TCOON:146:1,2016-07-08T01:30:00Z,28.1324,-97.0345,0.0,6.4,224.0,7.7,'1111122,1111122,1111122' 
TCOON,ioos:station:TCOON:146:1,2016-07-08T02:30:00Z,28.1324,-97.0345,0.0,6.5,227.0,7.5,'1111122,1111122,1111122' 
TCOON,ioos:station:TCOON:146:1,2016-07-08T03:30:00Z,28.1324,-97.0345,0.0,6.6,229.0,8.0,'1111122,1111122,1111122' 
TCOON,ioos:station:TCOON:146:1,2016-07-08T04:30:00Z,28.1324,-97.0345,0.0,6.0,232.0,7.5,'1111122,1111122,1111122' 
TCOON,ioos:station:TCOON:146:1,2016-07-08T05:30:00Z,28.1324,-97.0345,0.0,5.7,232.0,6.8,'1111122,1111122,1111122' 
TCOON,ioos:station:TCOON:146:1,2016-07-08T06:30:00Z,28.1324,-97.0345,0.0,5.2,236.0,6.7,'1111122,1111122,1111122' 
TCOON,ioos:station:TCOON:146:1,2016-07-08T07:30:00Z,28.1324,-97.0345,0.0,4.9,239.0,6.4,'1111122,1111122,1111122' 
TCOON,ioos:station:TCOON:146:1,2016-07-08T08:30:00Z,28.1324,-97.0345,0.0,5.2,244.0,6.8,'1111122,1111122,1111122' 
TCOON,ioos:station:TCOON:146:1,2016-07-08T09:30:00Z,28.1324,-97.0345,0.0,5.1,246.0,7.7,'1111122,1111122,1111122' 
TCOON,ioos:station:TCOON:146:1,2016-07-08T10:30:00Z,28.1324,-97.0345,0.0,4.8,247.0,6.1,'1111122,1111122,1111122' 
TCOON,ioos:station:TCOON:146:1,2016-07-08T11:30:00Z,28.1324,-97.0345,0.0,5.1,242.0,6.3,'1111122,1111122,1111122' 
TCOON,ioos:station:TCOON:146:1,2016-07-08T12:30:00Z,28.1324,-97.0345,0.0,4.6,246.0,6.1,'1111122,1111122,1111122' 
TCOON,ioos:station:TCOON:146:1,2016-07-08T13:30:00Z,28.1324,-97.0345,0.0,4.4,236.0,5.7,'1111122,1111122,1111122' 
TCOON,ioos:station:TCOON:146:1,2016-07-08T14:30:00Z,28.1324,-97.0345,0.0,4.7,231.0,5.8,'1111122,1111122,1111122' 
TCOON,ioos:station:TCOON:146:1,2016-07-08T15:30:00Z,28.1324,-97.0345,0.0,4.6,227.0,5.4,'1111122,1111122,1111122' 
TCOON,ioos:station:TCOON:146:1,2016-07-08T16:30:00Z,28.1324,-97.0345,0.0,5.1,229.0,6.2,'1111122,1111122,1111122' 
TCOON,ioos:station:TCOON:146:1,2016-07-08T17:30:00Z,28.1324,-97.0345,0.0,5.4,222.0,6.5,'1111122,1111122,1111122' 
TCOON,ioos:station:TCOON:146:1,2016-07-08T18:30:00Z,28.1324,-97.0345,0.0,5.7,219.0,6.6,'1111122,1111122,1111122' 
TCOON,ioos:station:TCOON:146:1,2016-07-08T19:30:00Z,28.1324,-97.0345,0.0,6.2,221.0,7.5,'1111122,1111122,1111122' 
TCOON,ioos:station:TCOON:146:1,2016-07-08T20:30:00Z,28.1324,-97.0345,0.0,6.3,218.0,7.5,'1111122,1111122,1111122' 
TCOON,ioos:station:TCOON:146:1,2016-07-08T21:30:00Z,28.1324,-97.0345,0.0,6.4,219.0,7.6,'1111122,1111122,1111122' 
TCOON,ioos:station:TCOON:146:1,2016-07-08T22:30:00Z,28.1324,-97.0345,0.0,5.6,215.0,7.0,'1111122,1111122,1111122' 
TCOON,ioos:station:TCOON:146:1,2016-07-08T23:30:00Z,28.1324,-97.0345,0.0,5.2,219.0,6.7,'1111122,1111122,1111122' 
TCOON,ioos:station:TCOON:146:1,2016-07-09T00:30:00Z,28.1324,-97.0345,0.0,5.8,217.0,6.9,'1111122,1111122,1111122' 
TCOON,ioos:station:TCOON:146:1,2016-07-09T01:30:00Z,28.1324,-97.0345,0.0,5.9,222.0,7.1,'1111122,1111122,1111122' 
TCOON,ioos:station:TCOON:146:1,2016-07-09T02:30:00Z,28.1324,-97.0345,0.0,5.7,228.0,6.6,'1111122,1111122,1111122' 
TCOON,ioos:station:TCOON:146:1,2016-07-09T03:30:00Z,28.1324,-97.0345,0.0,5.5,228.0,6.5,'1111122,1111122,1111122' 
TCOON,ioos:station:TCOON:146:1,2016-07-09T04:30:00Z,28.1324,-97.0345,0.0,5.3,238.0,7.0,'1111122,1111122,1111122' 
TCOON,ioos:station:TCOON:146:1,2016-07-09T05:30:00Z,28.1324,-97.0345,0.0,5.0,236.0,6.1,'1111122,1111122,1111122' 
TCOON,ioos:station:TCOON:146:1,2016-07-09T06:30:00Z,28.1324,-97.0345,0.0,4.3,229.0,5.2,'1111122,1111122,1111122' 
TCOON,ioos:station:TCOON:146:1,2016-07-09T07:30:00Z,28.1324,-97.0345,0.0,4.7,233.0,5.7,'1111122,1111122,1111122' 
TCOON,ioos:station:TCOON:146:1,2016-07-09T08:30:00Z,28.1324,-97.0345,0.0,4.9,242.0,6.4,'1111122,1111122,1111122' 
TCOON,ioos:station:TCOON:146:1,2016-07-09T09:30:00Z,28.1324,-97.0345,0.0,4.8,243.0,6.0,'1111122,1111122,1111122' 
TCOON,ioos:station:TCOON:146:1,2016-07-09T10:30:00Z,28.1324,-97.0345,0.0,4.5,246.0,5.8,'1111122,1111122,1111122' 
TCOON,ioos:station:TCOON:146:1,2016-07-09T11:30:00Z,28.1324,-97.0345,0.0,4.4,241.0,5.6,'1111122,1111122,1111122' 
TCOON,ioos:station:TCOON:146:1,2016-07-09T12:30:00Z,28.1324,-97.0345,0.0,4.1,245.0,5.3,'1111122,1111122,1111122' 
TCOON,ioos:station:TCOON:146:1,2016-07-09T13:30:00Z,28.1324,-97.0345,0.0,4.1,238.0,5.8,'1111122,1111122,1111122' 
TCOON,ioos:station:TCOON:146:1,2016-07-09T14:30:00Z,28.1324,-97.0345,0.0,4.6,238.0,5.9,'1111122,1111122,1111122' 
TCOON,ioos:station:TCOON:146:1,2016-07-09T15:30:00Z,28.1324,-97.0345,0.0,5.0,231.0,6.2,'1111122,1111122,1111122' 
TCOON,ioos:station:TCOON:146:1,2016-07-09T16:30:00Z,28.1324,-97.0345,0.0,4.6,229.0,5.4,'1111122,1111122,1111122' 
TCOON,ioos:station:TCOON:146:1,2016-07-09T17:30:00Z,28.1324,-97.0345,0.0,4.3,228.0,5.3,'1111122,1111122,1111122' 
TCOON,ioos:station:TCOON:146:1,2016-07-09T18:30:00Z,28.1324,-97.0345,0.0,5.1,218.0,6.0,'1111122,1111122,1111122' 
TCOON,ioos:station:TCOON:146:1,2016-07-09T19:30:00Z,28.1324,-97.0345,0.0,5.1,213.0,6.7,'1111122,1111122,1111122' 
TCOON,ioos:station:TCOON:146:1,2016-07-09T20:30:00Z,28.1324,-97.0345,0.0,5.3,213.0,6.5,'1111122,1111122,1111122' 
TCOON,ioos:station:TCOON:146:1,2016-07-09T21:30:00Z,28.1324,-97.0345,0.0,5.7,220.0,6.6,'1111122,1111122,1111122' 
TCOON,ioos:station:TCOON:146:1,2016-07-09T22:30:00Z,28.1324,-97.0345,0.0,5.7,219.0,6.7,'1111122,1111122,1111122' 
TCOON,ioos:station:TCOON:146:1,2016-07-09T23:30:00Z,28.1324,-97.0345,0.0,5.7,223.0,6.9,'1111122,1111122,1111122' 
TCOON,ioos:station:TCOON:146:1,2016-07-10T00:30:00Z,28.1324,-97.0345,0.0,6.1,224.0,7.5,'1111122,1111122,1111122' 
TCOON,ioos:station:TCOON:146:1,2016-07-10T01:30:00Z,28.1324,-97.0345,0.0,5.9,221.0,7.1,'1111122,1111122,1111122' 
TCOON,ioos:station:TCOON:146:1,2016-07-10T02:30:00Z,28.1324,-97.0345,0.0,5.6,227.0,6.5,'1111122,1111122,1111122' 
TCOON,ioos:station:TCOON:146:1,2016-07-10T03:30:00Z,28.1324,-97.0345,0.0,5.8,226.0,7.6,'1111122,1111122,1111122' 
TCOON,ioos:station:TCOON:146:1,2016-07-10T04:30:00Z,28.1324,-97.0345,0.0,5.5,221.0,6.8,'1111122,1111122,1111122' 
TCOON,ioos:station:TCOON:146:1,2016-07-10T05:30:00Z,28.1324,-97.0345,0.0,5.4,230.0,6.6,'1111122,1111122,1111122' 
TCOON,ioos:station:TCOON:146:1,2016-07-10T07:30:00Z,28.1324,-97.0345,0.0,4.1,227.0,5.4,'1111122,1111122,1111122' 